����,�C�@��,���@�x,���@��,���@��,���@��,�ϐ�[,�ϐ�d��1,�ϐ�d��2,�ϐ�d��3,�J�@��,�~��o��,�~�ይ�x�i��j,�~�ይ�x�i���j,�~�ይ�x�i���j,���,�Z��~����1,�Z��~����2,�Z��~����3,�Z��~����4,�J�ᔻ��,�Z���T���x
����,��,��,kw/�u,��,m/s,cm,kg/�u,kg/�u,kg/�u,mm,1=�L_0=��,1=�L_0=��,1=�L_0=��,1=�L_0=��,p,p,p,p,p,��,��
2015-01-01 00:00:00,0.51,93.20,0.000,8.39,0.27,68.2,242.57,0.00,-288.07,0.0,0,0,0,0,1164,24.00,39.00,26.00,39.00,-0.11,-187.80
2015-01-01 00:10:00,0.55,93.30,0.000,357.50,0.26,68.3,243.92,0.00,-292.13,0.0,0,0,0,0,1307,24.00,39.00,27.00,39.00,-0.03,-187.70
2015-01-01 00:20:00,0.42,93.40,0.000,358.60,0.29,68.8,243.92,0.00,-293.14,0.5,0,0,0,0,1238,23.00,39.00,27.00,38.00,-0.19,-187.70
2015-01-01 00:30:00,0.50,93.50,0.000,3.22,0.24,69.0,243.58,0.00,-288.74,0.0,0,0,0,0,691,24.00,40.00,27.00,39.00,-0.07,-188.10
2015-01-01 00:40:00,0.47,93.50,0.000,356.30,0.28,68.9,243.92,0.00,-288.06,0.0,0,0,0,0,554,28.00,39.00,26.00,38.00,-0.03,-186.40
2015-01-01 00:50:00,0.42,93.40,0.000,338.80,0.28,69.7,244.25,0.00,-287.39,0.5,0,0,0,0,504,43.00,39.00,27.00,20.00,-0.07,-187.00
2015-01-01 01:00:00,0.34,93.40,0.000,349.30,0.27,69.7,244.26,0.00,-283.33,0.0,0,0,0,0,381,24.00,39.00,27.00,38.00,-0.07,-185.80
2015-01-01 01:10:00,0.47,93.40,0.000,17.47,0.22,70.2,243.58,0.00,-283.33,0.0,0,0,0,0,492,23.00,39.00,13.00,39.00,-0.11,-185.70
2015-01-01 01:20:00,0.55,93.40,0.000,25.90,0.33,70.5,243.57,0.00,-282.64,0.5,0,0,0,0,372,24.00,40.00,27.00,19.00,-0.07,-186.30
2015-01-01 01:30:00,0.42,93.40,0.000,9.07,0.26,70.6,244.58,0.00,-282.64,0.0,0,0,0,0,875,23.00,39.00,27.00,39.00,-0.03,-185.90
2015-01-01 01:40:00,0.42,93.40,0.000,338.00,0.35,71.0,244.26,0.00,-287.39,0.5,0,0,0,0,310,23.00,39.00,27.00,19.00,-0.11,-185.70
2015-01-01 01:50:00,0.55,93.40,0.000,339.80,0.26,70.6,244.59,0.00,-285.01,0.0,0,0,0,0,69,24.00,40.00,14.00,39.00,-0.07,-186.20
2015-01-01 02:00:00,0.63,93.30,0.000,12.96,0.26,70.6,244.93,0.00,-282.99,0.5,0,0,0,0,12,23.00,22.00,27.00,19.00,-0.03,-186.10
2015-01-01 02:10:00,0.55,93.10,0.000,352.90,0.30,70.9,244.60,0.00,-282.66,0.0,0,0,0,0,92,23.00,37.00,27.00,39.00,-0.07,-186.30
2015-01-01 02:20:00,0.26,92.90,0.000,354.80,0.30,70.7,244.59,0.00,-280.62,0.5,0,0,0,0,378,23.00,39.00,13.00,19.00,-0.03,-186.40
2015-01-01 02:30:00,0.26,92.90,0.000,354.80,0.26,70.7,245.28,0.00,-279.61,0.0,0,0,0,0,64,23.00,39.00,28.00,39.00,-0.07,-185.70
2015-01-01 02:40:00,0.26,92.70,0.000,339.50,0.26,71.0,244.59,0.00,-278.24,0.0,0,0,0,0,149,23.00,39.00,13.00,31.00,-0.11,-185.90
2015-01-01 02:50:00,0.34,92.40,0.000,337.40,0.27,70.8,245.27,0.00,-278.25,0.5,0,0,0,0,1,24.00,36.00,28.00,27.00,-0.07,-185.60
2015-01-01 03:00:00,0.30,90.50,0.000,331.00,0.26,70.7,245.62,0.00,-282.66,0.0,0,0,0,0,5,21.00,23.00,13.00,19.00,-0.11,-185.40
2015-01-01 03:10:00,0.51,83.80,0.000,298.10,0.31,70.8,246.29,0.00,-284.68,0.5,0,0,0,0,10,2.00,39.00,27.00,39.00,-0.07,-186.50
2015-01-01 03:20:00,0.59,79.95,0.000,318.40,0.30,70.7,244.59,0.00,-280.28,0.0,0,0,0,0,0,23.00,20.00,14.00,20.00,-0.07,-186.20
2015-01-01 03:30:00,0.71,75.69,0.000,327.50,0.23,70.8,245.95,0.00,-277.91,0.0,0,0,0,0,10,23.00,39.00,27.00,19.00,-0.07,-186.10
2015-01-01 03:40:00,0.63,77.08,0.000,324.50,0.19,70.6,245.95,0.00,-280.62,0.5,0,0,0,0,8,23.00,39.00,14.00,39.00,-0.07,-185.90
2015-01-01 03:50:00,0.34,80.30,0.000,328.40,0.31,70.7,245.61,0.00,-278.93,0.0,0,0,0,0,167,24.00,19.00,27.00,19.00,-0.07,-186.50
2015-01-01 04:00:00,0.01,81.60,0.000,324.40,0.19,71.0,246.28,0.00,-279.94,0.5,0,0,0,0,471,23.00,40.00,14.00,20.00,-0.07,-185.60
2015-01-01 04:10:00,-0.19,83.30,0.000,335.10,0.23,71.2,244.92,0.00,-280.95,0.0,0,0,0,0,752,0.00,19.00,27.00,38.00,-0.23,-185.70
2015-01-01 04:20:00,-0.11,85.20,0.000,293.40,0.24,71.0,246.29,0.00,-279.61,0.0,0,0,0,0,93,23.00,39.00,14.00,20.00,-0.15,-186.30
2015-01-01 04:30:00,-0.19,84.30,0.000,271.70,0.28,71.2,245.28,0.00,-277.92,0.5,0,0,0,0,510,23.00,20.00,13.00,19.00,-0.15,-185.90
2015-01-01 04:40:00,-0.36,84.60,0.000,12.75,0.26,71.4,246.27,0.00,-286.02,0.0,0,0,0,0,535,24.00,39.00,28.00,20.00,-0.19,-186.10
2015-01-01 04:50:00,-0.32,83.70,0.000,8.64,0.22,71.2,246.28,0.00,-288.40,0.0,0,0,0,0,13,23.00,19.00,14.00,38.00,-0.24,-186.10
2015-01-01 05:00:00,-0.19,83.30,0.000,343.80,0.22,71.4,246.96,0.00,-284.68,0.5,0,0,0,0,403,23.00,40.00,13.00,20.00,-0.52,-185.70
2015-01-01 05:10:00,-0.48,86.90,0.000,0.39,0.33,72.1,246.28,0.00,-286.03,0.0,0,0,0,0,1316,0.00,19.00,22.00,19.00,-0.93,-186.20
2015-01-01 05:20:00,-0.48,88.70,0.000,13.59,0.22,72.1,246.29,0.00,-284.00,0.0,0,0,0,0,86,23.00,40.00,19.00,20.00,-1.02,-186.40
2015-01-01 05:30:00,-0.64,89.70,0.000,70.41,0.24,72.0,245.95,0.00,-285.36,0.5,0,0,0,0,5,23.00,19.00,14.00,19.00,-1.22,-186.10
2015-01-01 05:40:00,-0.77,89.50,0.000,54.84,0.24,72.0,247.31,0.00,-282.99,0.0,0,0,0,0,150,24.00,39.00,14.00,20.00,-1.22,-186.50
2015-01-01 05:50:00,-0.52,89.40,0.000,41.37,0.29,72.1,246.63,0.00,-286.03,0.0,0,0,0,0,74,23.00,20.00,14.00,19.00,-1.14,-186.50
2015-01-01 06:00:00,-0.56,87.70,0.000,86.80,0.31,72.3,245.95,0.00,-285.69,0.5,0,0,0,0,37,0.00,20.00,13.00,39.00,-1.22,-186.10
2015-01-01 06:10:00,-0.28,85.40,0.000,18.96,0.29,72.3,246.97,0.00,-292.47,0.0,0,0,0,0,238,23.00,39.00,14.00,19.00,-1.10,-186.00
2015-01-01 06:20:00,-0.36,83.30,0.000,59.20,0.26,72.3,246.31,0.00,-288.76,0.0,0,0,0,0,0,23.00,20.00,28.00,20.00,-1.30,-186.40
2015-01-01 06:30:00,-0.32,83.20,0.000,18.73,0.26,72.0,246.96,0.00,-284.68,0.5,0,0,0,0,71,0.00,19.00,13.00,19.00,-1.18,-186.60
2015-01-01 06:40:00,-0.28,82.40,0.000,25.31,0.29,72.4,246.62,0.00,-288.74,0.0,0,0,0,0,1,23.00,39.00,14.00,20.00,-1.30,-186.00
2015-01-01 06:50:00,-0.11,80.40,0.000,44.52,0.26,72.6,246.28,0.00,-284.34,0.5,0,0,0,0,55,23.00,20.00,14.00,19.00,-1.18,-186.60
2015-01-01 07:00:00,-0.27,80.50,0.000,62.36,0.32,72.4,246.28,0.00,-286.37,0.0,0,0,0,0,25,23.00,20.00,14.00,20.00,-1.22,-186.40
2015-01-01 07:10:00,-0.32,81.90,0.001,73.15,0.30,72.3,247.64,0.00,-286.37,0.0,0,0,0,0,56,0.00,19.00,14.00,19.00,-1.22,-186.30
2015-01-01 07:20:00,-0.27,81.80,0.003,118.70,0.31,72.3,246.62,0.00,-286.37,0.5,0,0,0,0,1,23.00,40.00,14.00,19.00,-1.22,-186.30
2015-01-01 07:30:00,-0.32,82.00,0.003,100.40,0.32,72.2,245.94,0.00,-291.11,0.0,0,0,0,0,0,23.00,19.00,14.00,20.00,-1.18,-185.40
2015-01-01 07:40:00,-0.15,82.10,0.005,111.30,0.24,72.2,247.64,0.00,-291.45,0.0,0,0,0,0,3,0.00,20.00,14.00,39.00,-1.10,-185.70
2015-01-01 07:50:00,-0.23,82.00,0.006,149.30,0.32,72.2,245.95,0.00,-292.13,0.5,0,0,0,0,0,23.00,19.00,14.00,19.00,-0.93,-186.00
2015-01-01 08:00:00,-0.19,82.10,0.005,152.10,0.24,72.3,247.30,0.00,-287.05,0.0,0,0,0,0,8,24.00,20.00,27.00,20.00,-0.89,-186.00
2015-01-01 08:10:00,0.05,79.55,0.009,2.97,0.28,72.1,247.65,0.00,-284.35,0.0,0,0,0,0,78,23.00,20.00,14.00,19.00,-0.77,-186.60
2015-01-01 08:20:00,0.22,78.94,0.009,178.70,0.30,72.3,247.98,0.00,-284.34,0.5,0,0,0,0,0,0.00,39.00,14.00,20.00,-0.61,-186.10
2015-01-01 08:30:00,-0.07,80.40,0.006,223.40,0.32,72.2,246.29,0.00,-282.99,0.0,0,0,0,0,0,23.00,20.00,14.00,19.00,-0.69,-185.70
2015-01-01 08:40:00,-0.40,77.21,0.004,314.10,0.22,72.4,246.29,0.00,-282.99,0.5,0,0,0,0,298,24.00,19.00,14.00,20.00,-1.10,-185.40
2015-01-01 08:50:00,-0.28,76.63,0.005,224.30,0.30,72.3,246.27,0.00,-281.62,0.0,0,0,0,0,197,0.00,20.00,14.00,19.00,-1.02,-185.70
2015-01-01 09:00:00,-0.28,78.84,0.007,199.20,0.31,72.4,245.61,0.00,-281.97,0.0,0,0,0,0,166,23.00,20.00,14.00,20.00,-0.98,-186.10
2015-01-01 09:10:00,-0.56,80.80,0.015,187.00,0.32,72.5,246.29,0.00,-288.40,0.5,0,0,0,0,232,23.00,19.00,14.00,8.00,-1.02,-186.70
2015-01-01 09:20:00,-0.81,82.80,0.010,187.40,0.30,72.3,247.64,0.00,-288.41,0.0,0,0,0,0,0,0.00,20.00,14.00,11.00,-1.06,-185.40
2015-01-01 09:30:00,-0.89,84.30,0.006,213.10,0.30,72.7,245.62,0.00,-285.70,0.5,0,0,0,0,251,24.00,20.00,14.00,20.00,-1.14,-185.60
2015-01-01 09:40:00,-0.81,86.50,0.008,216.60,0.35,72.6,247.64,0.00,-286.04,0.0,0,0,0,0,851,23.00,19.00,14.00,19.00,-1.10,-185.70
2015-01-01 09:50:00,-0.97,87.40,0.012,182.40,0.30,72.7,247.98,0.00,-285.69,0.0,0,0,0,0,251,0.00,20.00,0.00,20.00,-1.14,-186.10
2015-01-01 10:00:00,-0.81,88.10,0.024,151.90,0.30,72.8,246.60,0.00,-285.34,0.5,0,0,0,0,132,24.00,19.00,14.00,19.00,-0.65,-185.90
2015-01-01 10:10:00,-0.89,88.00,0.023,162.30,0.24,72.7,246.61,0.00,-284.32,0.5,0,0,0,0,0,23.00,20.00,14.00,20.00,-0.48,-186.50
2015-01-01 10:20:00,-0.69,87.30,0.014,165.50,0.29,72.6,246.28,0.00,-284.33,0.0,0,0,0,0,8,0.00,20.00,14.00,0.00,-0.44,-186.40
2015-01-01 10:30:00,-0.56,83.30,0.021,191.00,0.26,72.8,246.97,0.00,-283.33,0.5,0,0,0,0,246,23.00,39.00,14.00,19.00,-0.69,-186.10
2015-01-01 10:40:00,-0.56,84.30,0.024,174.60,0.24,72.9,246.96,0.00,-287.72,0.5,0,0,0,0,26,24.00,20.00,14.00,20.00,-0.28,-186.10
2015-01-01 10:50:00,-0.36,83.60,0.021,163.20,0.22,72.7,246.95,0.00,-287.04,0.0,0,0,0,0,3,0.00,19.00,14.00,20.00,-0.36,-186.20
2015-01-01 11:00:00,-0.11,78.50,0.026,180.30,0.21,72.9,248.32,0.00,-284.00,0.5,0,0,0,0,29,23.00,20.00,14.00,19.00,-0.28,-185.60
2015-01-01 11:10:00,-0.32,81.00,0.017,161.40,0.24,72.7,246.27,0.00,-281.96,0.5,0,0,0,0,3,0.00,20.00,0.00,20.00,-0.48,-185.80
2015-01-01 11:20:00,-0.23,81.90,0.020,162.30,0.26,72.4,247.63,0.00,-280.61,0.5,0,0,0,0,77,24.00,19.00,14.00,20.00,-0.28,-185.60
2015-01-01 11:30:00,-0.19,80.80,0.026,160.10,0.27,72.7,246.95,0.00,-280.61,0.0,0,0,0,0,143,23.00,20.00,14.00,0.00,-0.28,-185.60
2015-01-01 11:40:00,-0.44,79.78,0.016,164.30,0.26,72.7,247.63,0.00,-278.58,0.5,0,0,0,0,95,0.00,19.00,14.00,19.00,-0.48,-185.10
2015-01-01 11:50:00,-0.48,81.60,0.022,159.50,0.26,72.6,247.29,0.00,-278.24,0.5,0,0,0,0,177,23.00,20.00,14.00,20.00,-0.56,-184.90
2015-01-01 12:00:00,-0.64,84.50,0.014,160.50,0.33,72.9,247.62,0.00,-278.57,0.0,0,0,0,0,537,24.00,0.00,14.00,20.00,-0.60,-185.40
2015-01-01 12:10:00,-0.85,85.40,0.007,165.60,0.29,72.7,246.94,0.00,-284.66,0.5,0,0,0,0,286,0.00,20.00,14.00,19.00,-1.14,-185.00
2015-01-01 12:20:00,-0.81,87.50,0.013,142.50,0.26,73.1,246.96,0.00,-288.40,0.0,0,0,0,0,677,23.00,19.00,15.00,20.00,-0.85,-185.30
2015-01-01 12:30:00,-0.97,88.10,0.017,166.70,0.25,73.1,246.94,0.00,-285.68,0.5,0,0,0,0,289,23.00,20.00,0.00,20.00,-0.77,-185.70
2015-01-01 12:40:00,-0.93,87.40,0.007,158.10,0.27,73.1,246.95,0.00,-286.70,0.0,0,0,0,0,238,0.00,20.00,14.00,0.00,-0.85,-185.50
2015-01-01 12:50:00,-0.85,86.80,0.005,167.70,0.19,73.8,248.64,0.00,-289.40,0.0,0,0,0,0,968,24.00,19.00,14.00,19.00,-1.10,-185.30
2015-01-01 13:00:00,-0.93,87.80,0.014,159.20,0.27,73.8,246.96,0.00,-288.74,0.5,0,0,0,0,1202,0.00,20.00,14.00,20.00,-1.06,-185.70
2015-01-01 13:10:00,-0.85,89.20,0.021,156.90,0.22,74.0,248.98,0.00,-289.75,0.0,0,0,0,0,45,23.00,20.00,14.00,20.00,-0.44,-185.80
2015-01-01 13:20:00,-0.77,88.80,0.027,157.30,0.22,74.0,249.32,0.00,-288.39,0.5,0,0,0,0,1,0.00,19.00,14.00,20.00,-0.11,-186.10
2015-01-01 13:30:00,-0.73,87.20,0.017,153.60,0.31,73.8,248.31,0.00,-286.37,0.5,0,0,0,0,1,23.00,20.00,0.00,0.00,-0.28,-185.60
2015-01-01 13:40:00,-0.44,84.90,0.025,159.50,0.30,74.0,248.99,0.00,-286.03,0.0,0,0,0,0,1,24.00,20.00,15.00,19.00,-0.28,-185.30
2015-01-01 13:50:00,-0.44,82.90,0.012,166.80,0.22,74.0,248.98,0.00,-289.40,0.0,0,0,0,0,0,0.00,0.00,14.00,20.00,-0.36,-185.30
2015-01-01 14:00:00,-0.44,83.60,0.005,162.20,0.29,73.5,248.98,0.00,-291.10,0.0,0,0,0,0,20,23.00,19.00,14.00,20.00,-0.61,-185.30
2015-01-01 14:10:00,-0.15,85.20,0.005,243.60,0.28,73.6,248.30,0.00,-286.02,0.0,0,0,0,0,409,0.00,20.00,14.00,20.00,-0.69,-184.30
2015-01-01 14:20:00,-0.48,85.20,0.012,162.70,0.26,73.5,248.30,0.00,-286.70,0.0,0,0,0,0,608,23.00,20.00,0.00,0.00,-0.52,-185.30
2015-01-01 14:30:00,-0.36,85.00,0.012,159.00,0.27,73.6,248.30,0.00,-286.70,0.0,0,0,0,0,32,0.00,0.00,15.00,19.00,-0.32,-185.10
2015-01-01 14:40:00,-0.36,84.10,0.007,161.60,0.33,73.7,248.30,0.00,-285.01,0.0,0,0,0,0,0,24.00,19.00,14.00,20.00,-0.69,-185.30
2015-01-01 14:50:00,-0.36,83.70,0.004,174.80,0.24,73.8,247.97,0.00,-287.04,0.0,0,0,0,0,0,23.00,20.00,14.00,20.00,-0.97,-185.40
2015-01-01 15:00:00,-0.44,82.80,0.003,178.60,0.22,73.7,248.64,0.00,-286.70,0.0,0,0,0,0,171,0.00,20.00,0.00,20.00,-0.77,-185.70
2015-01-01 15:10:00,-0.36,83.50,0.005,165.00,0.22,74.3,249.66,0.00,-294.15,0.0,0,0,0,0,735,23.00,19.00,14.00,20.00,-0.85,-186.10
2015-01-01 15:20:00,-0.40,85.00,0.005,166.70,0.17,74.4,248.31,0.00,-295.51,0.5,0,0,0,0,274,0.00,20.00,15.00,0.00,-0.77,-186.20
2015-01-01 15:30:00,-0.15,85.90,0.004,172.00,0.24,74.0,249.32,0.00,-291.78,0.0,0,0,0,0,4,24.00,20.00,14.00,20.00,-0.65,-186.00
2015-01-01 15:40:00,-0.15,83.60,0.003,213.50,0.26,74.3,250.01,0.00,-291.79,0.0,0,0,0,0,1,0.00,19.00,0.00,19.00,-0.69,-186.80
2015-01-01 15:50:00,-0.15,82.70,0.003,206.80,0.24,74.0,250.70,0.00,-292.13,0.0,0,0,0,0,0,23.00,20.00,14.00,20.00,-0.77,-186.60
2015-01-01 16:00:00,0.05,69.46,0.001,203.10,0.17,74.0,250.69,0.00,-291.11,0.5,0,0,0,0,2,0.00,20.00,14.00,0.00,-1.10,-186.40
2015-01-01 16:10:00,-0.36,72.81,0.001,226.10,0.26,73.9,249.67,0.00,-291.79,0.0,0,0,0,0,17,24.00,0.00,15.00,20.00,-1.34,-186.60
2015-01-01 16:20:00,-0.36,75.86,0.000,216.30,0.26,73.5,248.31,0.00,-292.12,0.0,0,0,0,0,17,23.00,19.00,0.00,20.00,-1.39,-186.70
2015-01-01 16:30:00,-0.64,80.80,0.000,200.90,0.26,74.1,250.35,0.00,-293.48,0.0,0,0,0,0,931,0.00,20.00,14.00,20.00,-1.39,-186.40
2015-01-01 16:40:00,-0.97,85.90,0.000,210.40,0.31,74.8,248.31,0.00,-292.12,0.0,0,0,0,0,838,23.00,20.00,14.00,0.00,-1.43,-186.20
2015-01-01 16:50:00,-0.97,87.90,0.000,212.80,0.28,75.4,250.00,0.00,-299.90,0.0,0,0,0,0,1232,0.00,19.00,15.00,19.00,-1.47,-185.40
2015-01-01 17:00:00,-0.93,88.80,0.000,194.20,0.20,75.3,251.70,0.00,-297.54,0.0,0,0,0,0,333,24.00,20.00,0.00,20.00,-1.47,-186.40
2015-01-01 17:10:00,-0.77,87.80,0.000,204.90,0.31,75.4,249.34,0.00,-296.53,0.0,0,0,0,0,7,0.00,0.00,14.00,20.00,-1.55,-186.00
2015-01-01 17:20:00,-0.77,85.10,0.000,237.30,0.28,75.7,250.69,0.00,-297.55,0.0,0,0,0,0,52,23.00,20.00,14.00,0.00,-1.43,-186.00
2015-01-01 17:30:00,-0.97,84.90,0.000,313.50,0.26,75.6,251.37,0.00,-298.90,0.5,0,0,0,0,373,0.00,19.00,15.00,20.00,-1.59,-186.90
2015-01-01 17:40:00,-0.85,86.20,0.000,206.70,0.26,75.5,251.03,0.00,-297.21,0.0,0,0,0,0,200,23.00,20.00,0.00,20.00,-1.51,-186.40
2015-01-01 17:50:00,-0.69,86.50,0.000,166.60,0.29,76.3,250.36,0.00,-297.89,0.0,0,0,0,0,487,0.00,20.00,14.00,20.00,-1.34,-186.60
2015-01-01 18:00:00,-0.77,87.40,0.000,152.30,0.23,76.1,251.70,0.00,-297.54,0.0,0,0,0,0,353,24.00,0.00,14.00,0.00,-1.34,-186.20
2015-01-01 18:10:00,-0.93,87.80,0.000,135.40,0.31,76.1,251.03,0.00,-304.99,0.5,0,0,0,0,2,0.00,19.00,0.00,19.00,-1.51,-186.40
2015-01-01 18:20:00,-0.89,87.80,0.000,77.00,0.26,75.9,249.68,0.00,-304.66,0.0,0,0,0,0,6,23.00,20.00,15.00,20.00,-1.51,-186.50
2015-01-01 18:30:00,-0.32,80.40,0.000,184.40,0.24,75.9,251.37,0.00,-298.90,0.0,0,0,0,0,18,0.00,20.00,14.00,20.00,-1.51,-186.40
2015-01-01 18:40:00,-0.32,76.50,0.000,212.10,0.24,75.6,252.04,0.00,-299.24,0.5,0,0,0,0,0,24.00,19.00,15.00,0.00,-1.51,-186.00
2015-01-01 18:50:00,-0.28,76.70,0.000,274.60,0.28,75.5,250.35,0.00,-299.57,0.0,0,0,0,0,80,0.00,0.00,0.00,20.00,-1.51,-186.40
2015-01-01 19:00:00,-0.69,80.40,0.000,315.50,0.26,76.0,250.35,0.00,-298.89,0.0,0,0,0,0,108,23.00,20.00,14.00,20.00,-1.59,-186.20
2015-01-01 19:10:00,-1.01,85.00,0.000,331.70,0.24,75.7,249.67,0.00,-298.89,0.0,0,0,0,0,194,0.00,20.00,15.00,0.00,-1.80,-186.10
2015-01-01 19:20:00,-0.89,85.10,0.000,333.90,0.26,75.9,251.37,0.00,-297.55,0.0,0,0,0,0,76,24.00,20.00,0.00,19.00,-1.59,-185.40
2015-01-01 19:30:00,-0.81,82.90,0.000,326.10,0.24,75.9,250.35,0.00,-299.24,0.0,0,0,0,0,82,0.00,19.00,14.00,20.00,-1.55,-185.90
2015-01-01 19:40:00,-1.18,84.40,0.000,274.60,0.23,76.0,250.34,0.00,-300.58,0.5,0,0,0,0,58,23.00,0.00,14.00,20.00,-1.92,-186.40
2015-01-01 19:50:00,-1.18,84.40,0.000,292.60,0.17,75.8,252.39,0.00,-299.58,0.0,0,0,0,0,0,23.00,20.00,0.00,0.00,-2.25,-186.10
2015-01-01 20:00:00,-0.80,80.40,0.001,280.60,0.26,75.9,250.36,0.00,-307.03,0.0,0,0,0,0,256,0.00,20.00,15.00,20.00,-1.83,-186.50
2015-01-01 20:10:00,-0.56,77.82,0.001,233.80,0.17,76.1,250.70,0.00,-302.97,0.0,0,0,0,0,200,24.00,19.00,14.00,20.00,-1.59,-186.40
2015-01-01 20:20:00,-0.64,76.10,0.000,292.40,0.23,76.0,250.36,0.00,-302.29,0.0,0,0,0,0,10,0.00,20.00,0.00,0.00,-1.92,-186.00
2015-01-01 20:30:00,-0.64,73.59,0.000,0.00,0.31,76.0,252.39,0.00,-301.95,0.0,0,0,0,0,0,23.00,0.00,15.00,20.00,-2.00,-186.50
2015-01-01 20:40:00,-0.52,73.86,0.000,309.40,0.19,75.7,252.39,0.00,-301.95,0.0,0,0,0,0,0,0.00,20.00,14.00,19.00,-1.92,-186.40
2015-01-01 20:50:00,-0.32,70.04,0.000,286.80,0.30,76.1,250.70,0.00,-301.95,0.0,0,0,0,0,0,23.00,19.00,0.00,0.00,-1.88,-185.80
2015-01-01 21:00:00,-0.40,69.06,0.000,305.70,0.19,75.6,250.35,0.00,-301.27,0.0,0,0,0,0,0,0.00,20.00,15.00,20.00,-1.92,-186.30
2015-01-01 21:10:00,-0.40,73.66,0.000,286.50,0.15,75.9,250.35,0.00,-309.05,0.0,0,0,0,0,0,24.00,20.00,14.00,0.00,-1.76,-185.90
2015-01-01 21:20:00,-0.64,74.17,0.000,305.90,0.29,75.8,251.03,0.00,-302.63,0.0,0,0,0,0,0,0.00,0.00,0.00,20.00,-1.84,-186.40
2015-01-01 21:30:00,-0.69,72.95,0.000,278.10,0.24,75.7,251.72,0.00,-305.68,0.0,0,0,0,0,0,23.00,20.00,15.00,20.00,-2.08,-186.00
2015-01-01 21:40:00,-0.64,73.56,0.000,278.70,0.27,75.5,250.69,0.00,-301.27,0.0,0,0,0,0,1,0.00,19.00,14.00,0.00,-2.00,-186.10
2015-01-01 21:50:00,-0.69,76.03,0.000,307.80,0.24,75.5,250.35,0.00,-304.65,0.0,0,0,0,0,243,24.00,0.00,0.00,20.00,-1.84,-186.30
2015-01-01 22:00:00,-0.77,77.01,0.000,280.70,0.30,75.4,252.39,0.00,-304.66,0.0,0,0,0,0,0,0.00,20.00,15.00,20.00,-2.00,-186.30
2015-01-01 22:10:00,-0.48,75.25,0.000,305.60,0.24,75.6,252.39,0.00,-304.66,0.0,0,0,0,0,1,23.00,20.00,14.00,0.00,-1.83,-186.50
2015-01-01 22:20:00,-0.56,75.32,0.000,304.50,0.26,75.4,253.06,0.00,-303.64,0.0,0,0,0,0,0,0.00,20.00,0.00,20.00,-1.91,-186.10
2015-01-01 22:30:00,-0.35,76.60,0.001,308.70,0.24,75.2,250.69,0.00,-305.33,0.0,0,0,0,0,1,23.00,0.00,15.00,19.00,-1.51,-186.10
2015-01-01 22:40:00,-0.48,73.29,0.000,325.00,0.27,75.4,251.03,0.00,-303.98,0.0,0,0,0,0,0,0.00,20.00,0.00,0.00,-1.75,-186.10
2015-01-01 22:50:00,-0.56,77.42,0.000,278.60,0.23,75.2,251.03,0.00,-303.97,0.0,0,0,0,0,32,24.00,19.00,14.00,20.00,-1.67,-186.00
2015-01-01 23:00:00,-0.52,75.72,0.000,298.20,0.22,75.4,252.04,0.00,-310.07,0.0,0,0,0,0,1,0.00,20.00,15.00,20.00,-1.67,-186.20
2015-01-01 23:10:00,-0.48,76.03,0.000,269.60,0.22,75.3,251.03,0.00,-304.31,0.0,0,0,0,0,114,23.00,18.00,0.00,0.00,-1.59,-186.10
2015-01-01 23:20:00,-0.48,82.20,0.000,300.00,0.23,75.6,252.72,0.00,-304.99,0.0,0,0,0,0,524,0.00,2.00,14.00,20.00,-1.34,-186.20
2015-01-01 23:30:00,-0.23,79.58,0.000,212.40,0.24,75.4,250.70,0.00,-301.28,0.0,0,0,0,0,14,24.00,20.00,15.00,0.00,-1.38,-186.10
2015-01-01 23:40:00,-0.03,77.35,0.001,238.10,0.20,75.4,253.06,0.00,-300.93,0.0,0,0,0,0,97,0.00,19.00,0.00,20.00,-1.22,-186.80
2015-01-01 23:50:00,0.05,78.33,0.000,291.60,0.29,75.6,252.39,0.00,-301.95,0.0,0,0,0,0,56,23.00,20.00,14.00,19.00,-1.06,-186.00
2015-01-02 00:00:00,-0.73,84.20,0.000,282.70,0.24,76.1,251.03,0.00,-300.59,0.5,0,0,0,0,623,0.00,0.00,0.00,0.00,-1.30,-185.80
2015-01-02 00:10:00,-0.77,85.30,0.000,295.80,0.23,76.0,250.70,0.00,-304.32,0.0,0,0,0,0,241,23.00,20.00,15.00,20.00,-1.43,-185.90
2015-01-02 00:20:00,-0.65,82.40,0.000,266.40,0.18,76.2,252.72,0.00,-299.92,0.0,0,0,0,0,359,0.00,20.00,15.00,20.00,-1.43,-185.50
2015-01-02 00:30:00,-1.18,84.10,0.000,284.80,0.24,77.0,251.03,0.00,-299.58,0.0,0,0,0,0,453,24.00,20.00,0.00,0.00,-1.88,-186.00
2015-01-02 00:40:00,-0.65,85.10,0.000,312.40,0.19,77.1,251.03,0.00,-298.90,0.5,0,0,0,0,184,0.00,0.00,14.00,20.00,-1.55,-186.30
2015-01-02 00:50:00,-0.64,82.20,0.000,293.90,0.16,76.5,253.04,0.00,-299.90,0.0,0,0,0,0,111,23.00,20.00,0.00,0.00,-1.59,-186.80
2015-01-02 01:00:00,-1.05,82.40,0.000,302.00,0.23,77.0,253.38,0.00,-299.22,0.0,0,0,0,0,311,0.00,19.00,15.00,19.00,-1.76,-186.80
2015-01-02 01:10:00,-1.14,81.30,0.000,299.10,0.26,76.8,251.03,0.00,-298.90,0.0,0,0,0,0,13,24.00,20.00,14.00,20.00,-2.25,-186.40
2015-01-02 01:20:00,-0.60,78.09,0.000,287.50,0.30,77.0,253.39,0.00,-299.23,0.0,0,0,0,0,0,0.00,4.00,0.00,0.00,-2.25,-186.80
2015-01-02 01:30:00,-0.64,79.11,0.000,198.80,0.22,77.1,251.70,0.00,-301.26,0.0,0,0,0,0,171,23.00,16.00,15.00,20.00,-1.84,-186.80
2015-01-02 01:40:00,-0.97,83.70,0.000,0.00,0.21,77.0,253.40,0.00,-306.35,0.0,0,0,0,0,318,0.00,20.00,14.00,20.00,-1.84,-186.60
2015-01-02 01:50:00,-0.97,83.60,0.000,318.60,0.19,76.8,251.71,0.00,-303.30,0.0,0,0,0,0,67,23.00,19.00,0.00,0.00,-1.80,-186.80
2015-01-02 02:00:00,-0.65,84.20,0.001,83.10,0.24,76.9,251.71,0.00,-302.62,0.5,0,0,0,0,55,0.00,0.00,15.00,20.00,-1.55,-186.70
2015-01-02 02:10:00,-0.69,84.30,0.001,130.80,0.26,77.0,253.06,0.00,-302.28,0.0,0,0,0,0,127,0.00,20.00,0.00,20.00,-1.43,-186.50
2015-01-02 02:20:00,-0.89,86.50,0.000,152.90,0.21,76.7,253.05,0.00,-299.91,0.0,0,0,0,0,59,24.00,20.00,14.00,0.00,-1.43,-186.70
2015-01-02 02:30:00,-0.93,88.10,0.000,152.40,0.17,76.9,252.05,0.00,-298.90,0.0,0,0,0,0,219,0.00,0.00,15.00,20.00,-1.47,-186.10
2015-01-02 02:40:00,-0.85,89.40,0.001,146.40,0.24,77.0,252.38,0.00,-297.88,0.0,0,0,0,0,762,23.00,20.00,0.00,0.00,-1.30,-186.40
2015-01-02 02:50:00,-0.72,90.30,0.001,147.80,0.21,77.1,254.07,0.00,-297.20,0.0,0,0,0,0,60,0.00,20.00,14.00,19.00,-1.30,-186.80
2015-01-02 03:00:00,-0.68,90.50,0.001,170.20,0.24,77.5,254.43,0.00,-296.54,0.0,0,0,0,0,798,23.00,0.00,15.00,20.00,-1.14,-186.80
2015-01-02 03:10:00,-0.64,90.90,0.001,222.00,0.24,78.0,254.08,0.00,-295.85,0.0,0,0,0,0,747,0.00,19.00,14.00,0.00,-1.06,-186.50
2015-01-02 03:20:00,-0.64,90.80,0.000,179.60,0.26,78.0,255.43,0.00,-294.50,0.0,0,0,0,0,226,24.00,20.00,0.00,20.00,-1.06,-186.30
2015-01-02 03:30:00,-0.52,91.00,0.000,190.30,0.24,78.4,254.74,0.00,-299.56,0.0,0,0,0,0,1216,0.00,20.00,15.00,0.00,-0.98,-186.40
2015-01-02 03:40:00,-0.56,91.30,0.000,195.90,0.27,78.9,256.10,0.00,-294.49,0.0,0,0,0,0,1341,23.00,0.00,9.00,20.00,-0.93,-186.10
2015-01-02 03:50:00,-0.60,91.40,0.000,163.50,0.38,78.7,255.77,0.00,-292.13,0.0,0,0,0,0,39,0.00,20.00,6.00,0.00,-1.10,-186.20
2015-01-02 04:00:00,-0.65,91.50,0.000,160.50,0.24,79.0,256.11,0.00,-291.45,0.5,0,0,0,0,0,0.00,20.00,14.00,20.00,-1.10,-185.90
2015-01-02 04:10:00,-0.60,91.70,0.000,149.10,0.30,79.2,255.77,0.00,-290.10,0.0,0,0,0,0,157,23.00,17.00,0.00,20.00,-1.14,-185.80
2015-01-02 04:20:00,-0.48,91.10,0.000,190.60,0.28,79.1,254.41,0.00,-290.10,0.0,0,0,0,0,601,0.00,3.00,15.00,0.00,-1.06,-185.80
2015-01-02 04:30:00,-0.48,89.50,0.000,193.80,0.27,79.5,255.42,0.00,-289.07,0.0,0,0,0,0,620,24.00,20.00,15.00,20.00,-1.14,-185.80
2015-01-02 04:40:00,-0.28,87.80,0.000,185.70,0.34,79.0,256.43,0.00,-295.84,0.5,0,0,0,0,7,0.00,20.00,0.00,20.00,-1.06,-185.80
2015-01-02 04:50:00,0.30,77.28,0.000,215.80,0.29,79.2,256.79,0.00,-290.78,0.0,0,0,0,0,1,23.00,0.00,14.00,0.00,-1.06,-186.00
2015-01-02 05:00:00,0.42,71.08,0.000,230.90,0.35,79.5,257.11,0.00,-292.12,0.5,0,0,0,0,0,0.00,20.00,15.00,19.00,-1.30,-186.00
2015-01-02 05:10:00,0.34,71.12,0.000,223.10,0.30,79.2,255.08,0.00,-289.41,0.0,0,0,0,0,2,23.00,20.00,0.00,0.00,-1.18,-185.80
2015-01-02 05:20:00,0.22,72.95,0.000,216.00,0.28,79.5,255.08,0.00,-288.06,0.5,0,0,0,0,0,0.00,0.00,15.00,20.00,-1.30,-185.70
2015-01-02 05:30:00,0.22,75.89,0.000,213.00,0.28,79.5,256.45,0.00,-287.05,0.0,0,0,0,0,2,24.00,20.00,0.00,20.00,-1.14,-185.60
2015-01-02 05:40:00,-0.15,77.31,0.000,185.60,0.31,79.5,255.09,0.00,-286.71,0.5,0,0,0,0,0,0.00,20.00,14.00,0.00,-1.26,-185.70
2015-01-02 05:50:00,-0.28,78.53,0.000,189.40,0.27,79.5,256.10,0.00,-286.71,0.0,0,0,0,0,0,23.00,0.00,15.00,20.00,-1.34,-186.30
2015-01-02 06:00:00,-0.32,78.87,0.000,207.60,0.28,79.6,255.76,0.00,-287.72,0.0,0,0,0,0,0,0.00,20.00,0.00,20.00,-1.26,-185.80
2015-01-02 06:10:00,-0.19,78.70,0.000,180.90,0.26,79.4,256.43,0.00,-287.72,0.5,0,0,0,0,5,24.00,20.00,15.00,0.00,-1.30,-185.80
2015-01-02 06:20:00,-0.15,79.61,0.000,177.90,0.24,79.5,255.08,0.00,-287.38,0.0,0,0,0,0,27,0.00,0.00,0.00,20.00,-1.10,-185.80
2015-01-02 06:30:00,-0.19,81.30,0.000,160.70,0.20,79.2,255.08,0.00,-293.81,0.0,0,0,0,0,45,23.00,19.00,15.00,0.00,-1.10,-185.80
2015-01-02 06:40:00,-0.32,82.30,0.000,178.60,0.30,79.6,256.77,0.00,-290.09,0.5,0,0,0,0,18,0.00,20.00,0.00,20.00,-1.14,-185.80
2015-01-02 06:50:00,-0.32,83.80,0.001,201.80,0.30,79.6,255.09,0.00,-291.11,0.0,0,0,0,0,125,23.00,0.00,14.00,20.00,-1.02,-186.20